Theta_e
350 352 351 351 351 350 352 352 352 353 353 353 353 353 352 353 354 355 354 355 354 354 353 351 345 346 347 346 347 349 350 350 350 351 352 351 353 358 361 360 360 360 358 359 359 358 358 357 357 357 357 356 356 356 356 356 356 356 357 356 356 356 356 356 356 356 356 356 355 355 355 354 354 354 353 353 352 352 352 351 352 351 351 351 351
351 351 350 349 350 350 351 353 354 354 354 351 354 355 353 353 354 354 356 355 355 355 354 349 343 344 346 346 347 349 350 350 351 351 352 352 352 358 362 361 360 360 359 359 359 358 358 357 358 357 357 357 357 356 357 357 357 357 357 356 356 356 356 356 356 357 356 357 356 355 355 354 353 354 354 353 353 353 353 353 353 353 353 353 352
352 351 349 349 349 349 351 352 351 353 353 353 355 355 355 355 355 354 354 352 352 351 349 342 342 344 347 346 347 348 349 350 351 352 352 352 352 353 359 361 360 360 359 359 359 359 359 358 359 358 357 357 357 357 357 357 357 357 357 358 357 357 357 357 357 356 357 357 356 355 355 356 354 355 355 355 354 354 354 353 354 354 354 353 353
352 351 350 348 349 349 351 350 350 351 352 352 353 354 355 355 356 357 359 355 353 352 345 341 341 343 344 345 347 347 348 349 351 352 352 352 351 352 355 358 361 361 360 360 359 359 358 359 358 358 359 358 359 358 358 357 357 358 358 358 358 358 357 357 357 357 357 357 357 356 356 356 356 355 356 356 356 356 355 355 355 355 355 353 353
351 353 355 349 350 349 351 352 352 351 352 353 354 353 353 355 356 361 356 352 351 351 353 343 341 342 343 344 346 346 347 348 349 351 351 352 352 352 353 356 355 362 361 361 360 360 359 359 359 360 359 359 359 359 359 359 359 359 358 359 358 358 359 358 358 358 358 358 358 358 357 357 357 357 357 357 357 357 356 356 356 356 355 355 355
352 352 351 349 349 348 349 350 352 351 352 354 353 353 355 356 353 350 358 351 349 350 346 345 344 343 343 343 344 345 346 347 348 349 350 351 352 352 353 353 353 352 356 362 361 361 361 360 361 360 360 360 360 360 360 360 360 360 360 360 360 360 360 360 360 359 359 359 359 359 359 359 359 359 359 359 358 358 358 357 357 357 356 356 356
353 352 351 350 349 348 349 350 352 353 352 353 354 356 357 356 356 350 351 347 348 352 348 347 344 343 343 344 343 344 346 346 347 347 348 349 350 351 352 353 352 353 354 352 362 361 362 361 362 361 361 361 361 362 361 361 361 361 361 361 361 361 361 361 361 361 360 360 360 360 360 360 360 360 360 360 360 360 360 359 359 359 358 358 358
353 351 350 349 350 348 348 350 353 353 352 354 357 358 355 357 358 354 346 346 350 346 348 348 346 344 343 344 344 347 343 344 346 346 347 348 348 349 351 351 353 353 358 353 352 357 361 362 362 361 362 362 362 363 363 363 363 363 363 362 362 363 362 362 362 362 362 361 361 361 361 361 361 361 361 361 361 361 361 361 360 360 360 359 359
353 352 349 349 350 350 350 350 356 354 354 357 359 359 355 359 354 359 349 347 350 347 345 347 346 345 346 345 344 349 342 343 346 347 349 347 347 349 349 350 353 360 355 354 353 353 358 362 362 363 363 363 363 364 364 364 364 364 364 363 363 363 363 362 362 362 363 363 363 363 362 363 362 362 363 362 362 362 363 363 362 362 362 361 361
353 353 350 350 350 350 352 353 357 357 358 360 357 357 357 356 351 357 356 351 346 345 343 346 345 347 345 345 346 348 343 342 345 356 348 348 348 349 349 350 352 354 355 355 354 353 353 358 362 364 364 364 364 364 364 364 365 364 364 364 364 364 363 363 362 363 363 363 363 363 364 363 363 364 364 364 364 363 364 363 363 363 363 362 362
352 354 351 352 352 350 354 359 362 360 359 356 354 356 359 355 356 353 359 354 348 349 346 345 347 345 344 343 346 345 344 344 348 348 347 349 350 353 353 352 353 353 354 354 353 352 351 351 352 357 360 365 366 366 365 365 365 365 365 364 364 364 364 364 364 364 364 364 365 364 364 364 364 364 364 365 364 364 364 363 363 363 363 362 363
353 352 353 355 352 352 357 360 359 357 354 354 354 352 351 352 352 355 352 355 361 357 349 351 343 342 347 343 344 345 346 349 347 345 347 346 349 353 351 352 353 354 355 356 354 353 351 350 355 352 355 358 363 366 367 367 367 366 366 366 365 365 365 365 365 365 365 365 365 365 365 365 365 365 365 365 365 364 364 364 364 363 363 363 363
356 354 353 361 358 356 357 358 359 357 354 352 356 357 357 356 357 361 354 350 352 353 347 341 340 337 335 341 339 343 354 355 344 343 345 343 342 348 347 348 350 353 355 357 355 354 353 351 349 350 350 351 354 360 364 366 367 366 367 368 367 367 366 366 367 367 367 367 367 366 365 365 365 366 365 365 365 364 364 364 364 364 363 363 363
363 359 361 361 358 358 359 357 358 356 355 360 359 365 361 355 354 347 351 351 348 353 350 339 336 332 333 335 336 337 343 352 347 343 343 342 340 344 343 343 344 348 352 355 355 354 353 351 350 349 349 350 350 350 352 357 362 364 367 368 369 368 368 368 368 368 368 368 369 368 366 365 366 366 365 364 364 364 364 364 363 363 362 361 361
362 363 362 362 359 358 358 358 359 359 357 354 356 356 355 354 354 350 349 352 357 355 346 340 336 339 339 333 327 330 336 336 339 342 342 340 339 341 343 341 341 342 346 351 353 354 354 353 351 351 350 350 351 352 351 356 354 361 362 363 366 369 370 369 369 370 370 369 368 366 365 365 364 364 364 364 365 364 364 363 362 361 360 360 360
363 363 362 362 360 358 359 359 359 360 356 353 353 353 353 355 355 359 354 345 345 344 355 348 342 336 332 330 328 330 324 327 331 336 340 339 337 339 343 341 339 339 341 346 350 352 352 353 352 353 353 353 354 355 354 351 355 364 368 368 364 362 365 368 369 369 368 367 367 365 364 364 364 365 365 364 363 363 362 361 360 360 360 360 359
362 361 363 359 359 359 358 359 361 360 359 355 354 355 355 355 355 356 352 347 345 347 353 349 345 339 340 336 327 326 326 328 335 333 342 335 334 337 343 340 337 337 340 343 347 350 351 349 350 353 355 355 355 356 356 356 357 363 365 370 370 366 365 365 366 367 368 366 364 364 365 365 365 365 364 364 363 362 361 360 360 359 358 358 357
361 361 363 363 360 360 359 358 360 359 359 358 357 357 354 353 355 354 353 354 346 346 346 353 353 354 347 337 332 329 329 333 328 326 334 348 339 334 338 340 336 338 338 339 340 344 349 347 347 350 353 354 354 354 355 357 363 360 361 363 373 370 367 363 364 367 364 363 363 365 365 365 364 364 362 362 363 361 361 360 359 358 357 354 353
362 361 363 363 360 359 360 360 360 359 364 358 357 358 356 354 358 354 352 360 350 344 346 348 347 349 356 352 350 355 341 333 329 334 325 329 334 331 335 337 335 336 337 337 338 340 344 347 346 348 349 350 350 351 351 352 361 367 368 370 368 370 366 365 365 363 362 363 365 365 365 365 364 362 362 362 362 362 360 359 357 355 353 352 351
360 359 362 363 361 359 359 360 359 361 363 360 357 356 357 359 361 358 359 357 350 347 348 349 340 343 355 353 352 352 344 344 336 332 326 327 328 333 333 334 335 337 338 338 338 339 340 345 346 346 347 349 351 351 351 352 352 357 365 365 372 368 366 362 362 361 361 364 365 364 365 365 362 361 362 361 362 361 359 356 355 354 352 349 347
359 361 361 362 365 362 360 360 359 359 365 362 357 359 358 358 358 356 355 357 354 352 350 348 349 346 347 344 347 347 346 344 338 343 337 328 328 329 328 332 335 333 337 338 337 338 342 344 347 349 351 352 351 351 351 355 358 357 363 364 370 366 364 360 357 360 363 363 363 364 364 363 362 362 361 361 360 359 357 355 354 352 348 346 345
359 360 361 362 363 363 362 360 358 358 364 357 358 358 358 357 358 357 355 357 358 355 351 350 352 352 352 346 342 341 340 342 337 336 336 332 330 331 332 327 326 329 336 336 335 338 341 344 348 352 350 350 350 350 353 359 357 357 361 365 367 365 364 360 359 362 363 360 362 362 363 362 362 362 359 358 359 358 355 354 351 348 346 344 344
359 360 361 362 362 364 363 360 359 362 361 357 356 356 359 358 359 359 358 356 356 358 357 357 356 352 352 351 346 344 339 339 336 336 336 332 331 331 336 336 328 328 333 338 338 336 338 340 344 349 349 349 350 352 357 356 359 358 360 361 361 364 363 362 360 362 362 358 360 360 363 361 361 360 358 357 358 355 354 351 348 347 344 343 343
358 358 360 361 362 362 364 362 361 359 357 357 357 357 359 358 357 357 355 356 358 358 356 353 353 353 353 353 348 349 347 344 344 339 339 336 334 332 334 334 336 334 339 337 342 338 340 339 341 346 348 349 353 354 353 353 355 362 361 360 359 362 362 363 362 360 358 357 355 357 361 360 358 357 356 355 354 353 350 349 347 345 343 341 342
356 357 359 360 362 361 360 358 359 359 357 358 358 357 356 357 357 358 355 354 356 355 353 354 356 354 353 352 350 348 347 346 343 346 344 340 337 333 333 339 335 335 337 334 330 337 339 339 342 347 348 350 356 360 356 354 352 361 364 360 357 360 361 364 364 359 356 354 355 355 358 358 357 355 353 353 352 351 348 346 344 343 342 341 341
355 356 359 360 362 361 362 359 360 360 360 358 358 358 357 358 357 355 356 356 355 356 354 357 356 356 355 353 351 349 347 350 348 345 344 340 335 333 336 335 340 340 339 340 340 336 338 347 348 350 349 352 355 359 361 355 351 359 365 356 355 356 359 362 365 360 358 356 354 355 358 359 358 357 354 353 350 349 347 346 342 341 340 340 339
355 357 359 358 360 360 360 359 359 361 362 359 362 359 359 358 361 356 355 357 356 356 357 358 359 357 355 353 354 352 349 350 350 351 345 341 335 338 337 333 331 335 339 339 337 333 333 341 348 347 351 357 355 357 359 357 357 360 364 358 354 354 357 358 362 361 359 358 356 355 358 359 357 356 355 353 350 349 347 345 342 340 339 338 337
356 357 357 357 358 359 361 359 361 362 362 359 359 359 358 358 357 355 355 364 356 356 356 356 357 356 354 354 354 351 352 353 354 351 353 350 350 346 340 334 331 329 333 336 337 338 341 341 344 351 356 354 355 361 366 360 357 361 365 357 355 352 354 355 358 358 356 354 354 355 356 358 356 355 355 353 352 348 347 345 342 340 337 337 336
358 359 357 356 358 359 359 360 361 362 361 360 361 359 359 358 357 353 352 355 357 355 357 357 357 357 354 353 353 353 354 355 355 357 356 354 354 349 345 340 334 331 332 332 332 337 342 347 344 343 354 359 357 359 361 358 357 359 356 357 357 353 352 351 353 354 354 353 351 353 355 356 356 356 356 354 351 350 348 345 344 341 337 335 334
358 360 358 356 357 364 359 360 362 363 362 362 361 360 359 358 357 354 354 355 355 356 359 357 357 355 358 358 355 355 356 358 355 354 356 357 353 351 349 347 342 336 335 333 332 338 342 347 348 347 350 352 358 358 360 359 361 359 353 354 360 356 352 348 349 350 351 350 350 350 353 354 356 356 356 355 351 347 346 344 342 341 336 334 334
356 356 358 358 356 359 358 360 361 362 362 361 361 361 359 358 358 356 356 356 354 353 356 359 360 357 354 353 353 353 355 355 356 355 360 358 356 354 354 351 345 342 341 334 333 336 347 345 347 352 351 351 356 357 359 358 360 362 356 354 358 359 355 352 349 348 348 348 347 348 349 351 351 351 350 349 348 347 345 343 340 339 335 334 332
355 354 356 358 357 358 357 359 360 362 361 361 361 361 360 359 359 359 358 356 356 354 356 360 363 359 355 352 352 353 354 357 358 354 352 354 358 354 353 353 346 345 345 337 335 338 344 349 349 352 355 352 354 353 353 355 361 362 358 357 360 360 360 356 351 349 347 346 346 345 345 346 344 345 347 347 346 345 345 343 341 337 335 333 331
354 353 353 356 358 358 357 358 359 359 359 358 360 360 359 357 356 357 356 356 357 357 356 357 358 356 354 352 352 353 355 355 355 357 356 354 354 355 354 351 349 348 345 341 337 340 342 346 351 352 355 355 353 354 353 352 353 355 359 360 361 361 360 357 356 349 346 345 344 343 342 342 341 341 343 345 344 343 343 344 341 336 334 332 330
351 354 353 354 358 358 357 356 357 358 358 358 359 360 358 356 355 357 356 354 354 355 353 354 355 356 353 351 351 351 353 355 356 355 355 355 354 353 353 353 348 349 349 344 340 338 340 343 346 350 352 356 352 351 351 354 356 358 356 356 359 361 361 359 357 357 346 345 343 342 341 340 338 338 341 343 343 343 342 341 339 335 333 331 329
351 351 354 354 354 357 357 356 355 355 356 357 357 358 359 357 355 355 356 354 354 354 354 354 354 353 352 351 352 352 355 354 355 355 355 353 352 351 352 352 350 349 349 348 344 341 342 344 345 348 349 351 351 353 355 357 358 357 355 356 356 358 359 357 358 359 349 344 342 341 340 340 338 336 338 338 341 340 340 338 334 333 331 328 323
349 350 352 354 354 354 355 354 353 353 353 355 355 356 357 357 356 354 354 354 354 355 355 355 355 354 353 351 351 352 352 351 352 352 353 352 350 348 348 350 352 351 350 350 349 346 344 343 343 347 349 348 351 353 356 358 356 355 354 355 356 357 358 360 359 359 354 344 342 340 340 339 337 335 335 336 336 335 334 333 331 328 326 327 326
348 349 349 352 353 353 354 353 353 352 352 353 354 354 355 357 357 356 355 353 354 355 356 355 360 355 354 352 351 350 349 349 349 350 351 350 351 349 348 348 350 351 352 351 351 349 345 344 345 346 348 349 351 354 356 355 354 354 354 353 355 355 357 360 362 361 352 344 343 341 339 339 338 335 334 334 333 332 331 330 329 326 325 324 322
345 347 348 349 352 353 353 353 353 353 352 352 353 353 353 355 355 355 355 354 354 354 354 355 355 355 355 354 353 351 350 349 349 349 350 350 350 349 347 346 348 350 349 349 348 347 346 346 345 344 344 350 350 349 352 351 352 352 352 353 353 353 353 354 355 357 352 348 346 345 340 338 337 334 334 334 332 331 329 329 328 326 323 320 318
345 344 346 348 349 351 353 353 353 353 352 352 352 353 352 352 354 354 354 353 353 354 354 354 354 354 355 354 353 353 351 351 350 349 349 349 350 348 348 347 346 346 348 347 347 346 346 346 345 346 346 347 347 347 349 350 351 351 350 350 349 351 350 351 354 358 354 350 347 344 344 343 342 338 331 329 330 330 329 327 326 325 323 321 318
344 344 343 346 347 348 350 352 353 354 353 351 351 352 352 350 351 353 353 353 352 352 353 354 354 354 354 354 354 353 352 352 351 350 349 347 347 347 348 347 347 345 343 343 342 344 345 344 344 345 342 343 344 348 350 347 346 343 346 349 345 344 346 345 350 351 353 349 349 348 343 341 340 338 332 331 331 331 329 327 329 329 327 323 320
346 344 343 343 345 347 348 349 351 353 353 352 352 352 351 350 349 349 350 352 352 351 350 351 352 353 353 354 353 353 355 362 360 359 357 357 349 347 347 346 345 345 345 344 343 340 341 343 344 343 341 344 345 345 345 343 343 343 343 341 342 344 345 346 348 350 354 353 351 349 346 344 342 339 337 333 333 333 332 331 330 331 329 324 322
344 345 344 342 342 345 347 347 348 350 351 353 353 345 349 352 350 350 350 349 349 349 350 349 350 350 351 351 353 363 365 367 365 359 355 360 362 355 348 347 346 345 343 342 342 342 342 340 342 342 341 341 342 342 342 343 344 342 343 343 341 343 342 342 344 346 350 352 350 349 350 347 343 341 336 336 336 337 333 330 328 327 327 325 324
343 344 347 343 340 341 344 347 347 348 349 351 344 335 338 343 353 350 350 350 349 348 348 348 348 349 350 350 350 357 365 370 364 356 356 354 354 357 359 359 357 348 344 343 343 343 342 342 341 341 341 341 343 344 344 345 345 344 342 341 340 340 339 337 337 342 346 352 348 342 347 345 344 342 340 337 338 335 333 332 330 329 325 325 324
343 344 345 344 342 340 341 344 346 348 348 346 336 333 334 334 344 352 350 350 350 348 348 348 348 348 348 349 350 351 350 350 351 355 357 353 349 348 348 349 352 355 354 349 346 344 344 344 343 344 344 344 345 345 345 344 344 342 342 341 340 340 340 337 334 337 341 352 347 342 346 342 343 343 343 343 342 339 337 333 330 326 325 324 324
344 342 343 348 346 341 340 340 342 346 347 340 333 331 332 331 332 345 351 350 349 349 348 348 347 347 347 348 348 348 349 361 361 352 348 350 349 345 344 345 348 347 341 342 346 350 347 345 345 343 344 345 344 345 346 343 342 341 342 341 340 338 339 337 339 338 343 349 346 342 344 345 343 345 343 346 346 345 344 336 331 328 325 324 324
347 344 344 345 346 347 345 341 340 342 344 341 330 328 328 329 330 335 350 351 351 350 350 349 349 348 347 347 347 347 346 347 347 347 346 345 346 348 348 348 347 350 348 343 341 342 346 348 346 345 346 347 346 346 349 347 344 345 343 342 342 341 342 343 345 344 346 351 347 341 342 344 346 347 346 350 352 351 350 343 334 329 326 324 323
348 346 346 345 345 348 349 350 347 344 344 338 329 324 323 324 327 331 346 350 351 351 351 350 349 349 348 348 347 347 346 345 346 346 343 342 344 346 346 345 346 345 346 346 347 347 346 347 349 349 348 348 348 349 349 348 347 348 347 345 343 343 345 346 346 347 349 351 348 344 342 346 342 342 347 349 349 349 351 341 336 331 327 324 323
350 350 349 349 348 347 348 348 348 347 349 327 325 322 321 320 323 332 336 340 345 348 349 350 350 349 349 348 347 347 347 346 349 343 348 347 343 342 343 343 343 344 345 349 340 342 349 346 345 346 348 348 341 345 345 344 342 341 344 343 342 343 342 340 338 341 341 345 350 348 344 347 349 345 348 349 345 346 346 342 333 330 328 325 323
350 350 349 350 348 349 349 348 347 346 348 333 323 316 315 317 323 330 333 336 339 342 345 347 348 348 348 348 347 347 347 347 345 334 334 345 344 342 342 342 343 344 344 346 337 332 333 332 332 333 332 332 330 328 326 327 335 337 335 333 334 336 334 334 335 336 338 342 347 352 348 345 349 346 347 347 345 345 344 343 335 326 325 325 323
349 350 351 350 351 350 349 349 349 347 348 335 324 319 316 317 327 331 332 335 336 338 340 343 345 345 346 354 357 348 346 347 339 332 332 340 341 341 341 341 341 342 344 348 350 347 330 327 327 328 329 330 330 329 329 328 328 334 332 333 337 334 332 333 332 334 336 339 343 353 341 346 348 341 341 340 336 338 340 342 330 325 324 322 320
349 350 353 351 351 350 351 351 354 350 349 339 318 318 316 313 325 333 333 335 335 336 338 339 341 343 344 350 354 351 349 345 333 331 330 339 343 343 343 342 341 340 342 344 344 346 348 347 346 343 341 339 340 338 341 334 336 346 338 337 338 334 333 333 333 332 332 335 338 353 345 343 343 342 339 335 333 334 334 331 328 322 322 325 324
Wind_Speed
2 2 2 2 2 2 2 1 1 0 1 1 1 0 0 1 1 2 2 4 4 5 5 4 3 4 5 5 4 4 4 4 5 5 4 4 2 5 8 8 7 7 7 6 6 6 6 6 5 4 4 4 3 2 3 3 3 3 4 4 4 5 4 3 4 5 5 6 5 5 5 4 5 5 5 6 6 6 6 6 7 7 8 7 8
2 1 2 1 1 2 1 0 1 0 0 1 0 0 2 2 3 2 4 4 5 6 5 5 5 6 6 6 5 5 5 5 5 5 4 4 3 4 9 8 8 8 8 7 7 6 7 6 6 5 5 4 4 4 3 4 5 5 5 6 6 6 5 4 5 7 6 7 6 6 6 6 6 6 7 7 7 7 7 7 8 8 9 9 9
2 2 2 1 1 2 1 1 1 2 1 2 1 2 3 3 3 4 4 5 6 7 6 4 5 6 7 7 6 5 4 4 4 4 4 5 5 4 4 10 9 9 8 8 7 7 7 6 7 6 6 6 6 6 6 6 6 6 6 6 6 7 6 6 7 8 7 8 7 7 7 7 7 7 7 8 8 8 9 9 9 9 10 10 10
2 2 2 2 2 2 1 2 2 2 2 2 2 2 2 3 4 4 4 3 3 1 4 5 6 6 6 7 6 5 5 4 5 5 4 4 4 5 4 5 10 10 9 9 9 8 8 7 7 7 7 7 7 7 8 8 7 7 8 8 7 7 8 8 8 8 9 8 8 8 8 8 8 8 8 8 9 9 9 10 10 10 11 11 11
3 3 2 2 2 2 1 1 2 2 2 1 2 2 3 4 5 5 5 1 4 3 1 2 5 5 5 5 6 5 5 5 4 5 5 5 5 4 4 4 3 9 10 10 10 9 9 8 8 8 8 8 8 8 9 9 9 9 9 8 8 8 9 9 9 9 9 9 9 9 9 9 9 9 9 9 9 10 10 10 11 11 12 12 12
4 3 3 3 2 2 1 2 2 1 1 1 3 3 4 3 3 2 3 3 3 1 2 3 2 2 4 5 5 5 5 5 5 5 5 5 5 5 5 4 4 3 3 9 10 10 10 9 9 9 9 9 9 9 10 10 11 10 10 10 10 10 10 11 10 10 10 10 10 10 10 10 10 10 10 10 10 11 11 11 12 12 12 13 14
4 4 3 3 3 2 2 3 2 1 2 2 3 3 3 4 3 2 2 2 2 1 2 0 2 5 6 5 6 6 5 6 5 5 5 4 4 5 4 4 4 4 4 3 6 9 10 10 10 10 10 10 10 11 11 11 11 11 11 11 11 11 11 11 11 11 10 11 11 10 11 10 10 10 10 11 11 11 12 12 12 12 13 13 14
4 3 3 2 2 2 3 2 2 2 3 3 2 3 3 3 2 1 1 2 2 2 2 1 1 4 4 5 4 5 6 5 6 5 5 4 4 5 4 4 4 5 5 5 5 5 10 11 11 11 11 12 12 12 12 12 12 13 13 13 12 12 12 12 12 11 11 11 11 11 11 11 11 11 11 11 12 12 12 13 13 13 14 14 15
3 2 3 2 2 2 3 3 3 3 3 3 3 3 2 3 3 1 2 1 2 2 4 3 2 4 3 4 3 5 7 6 6 6 5 5 5 4 4 5 4 6 5 5 4 5 7 11 12 12 13 13 12 13 13 13 13 13 14 13 13 13 13 12 12 12 12 12 11 11 11 11 11 11 12 12 12 12 12 12 13 14 15 16 16
3 2 2 3 3 3 3 4 4 4 4 3 3 1 1 1 2 2 0 1 1 2 3 3 3 2 1 1 1 4 6 6 6 5 5 6 5 5 6 5 5 5 5 5 5 5 5 7 12 13 13 13 12 13 13 13 14 14 14 14 13 13 13 12 12 12 12 12 12 12 12 12 12 12 12 12 13 13 12 13 13 15 16 16 16
3 3 3 3 3 4 4 4 4 4 2 0 0 1 1 1 1 3 2 2 2 2 4 2 2 1 1 2 2 2 3 6 6 6 6 6 6 6 4 5 5 5 5 5 5 4 5 5 5 5 7 12 13 14 13 13 14 14 14 14 14 13 13 12 12 12 12 12 12 12 12 12 12 12 12 13 14 12 13 14 15 15 16 15 14
4 4 3 3 4 4 4 2 3 2 1 1 1 1 3 2 2 2 2 2 2 2 0 2 1 0 1 3 2 1 2 1 3 5 5 4 5 4 5 4 5 5 5 6 5 5 5 5 5 5 5 7 12 12 13 13 13 13 13 13 14 13 13 13 12 12 12 12 12 11 11 12 12 12 13 13 12 12 12 13 13 14 14 13 13
5 5 5 5 5 3 3 1 1 1 1 2 2 2 2 2 1 0 0 1 1 1 1 2 4 1 3 2 3 3 3 2 3 4 5 5 4 5 5 4 6 5 6 5 5 5 5 5 5 5 5 5 6 10 12 13 12 12 13 13 13 13 13 13 12 12 11 11 11 10 10 10 11 12 11 11 11 11 11 12 12 13 13 12 11
4 4 4 4 3 3 3 3 2 1 1 1 2 2 2 2 1 2 1 0 1 1 1 3 2 3 1 2 3 5 4 3 3 4 4 4 6 6 5 6 6 6 5 5 5 6 6 5 5 5 5 5 6 5 6 7 9 12 13 13 13 13 13 13 12 11 11 11 10 10 10 9 9 10 9 10 10 11 10 10 10 11 11 11 10
3 3 3 3 4 3 3 3 3 2 1 1 2 3 3 3 2 0 3 1 1 1 1 1 1 2 1 2 2 1 4 3 3 4 5 5 5 6 7 6 7 6 6 5 6 6 6 5 5 5 6 6 6 6 6 6 8 11 12 13 12 12 13 12 11 11 10 10 9 8 8 8 9 10 10 9 9 10 9 9 9 9 8 9 9
3 3 2 2 4 4 3 3 2 2 2 2 1 2 2 3 2 1 0 2 2 1 1 0 2 4 1 1 1 1 3 4 4 6 3 4 6 6 5 7 6 5 4 6 7 6 6 5 6 6 6 6 6 6 6 6 9 12 12 12 12 11 11 10 10 10 9 9 8 8 8 8 8 9 9 9 9 9 8 8 8 8 8 9 9
3 2 2 2 2 2 3 2 1 1 2 2 2 2 2 2 2 1 1 0 2 1 1 1 0 4 4 1 2 1 2 4 2 4 1 1 4 6 5 6 6 5 6 8 6 7 6 5 5 5 6 6 6 6 6 6 6 5 7 9 10 9 8 7 8 7 7 8 8 7 7 7 7 8 8 8 8 8 8 8 8 8 9 9 9
3 2 1 1 1 1 1 1 1 1 1 1 1 2 3 3 2 2 1 0 0 2 1 1 1 2 2 3 3 2 1 2 1 2 4 2 3 5 6 6 5 6 5 5 6 6 5 6 4 6 6 6 6 6 6 6 5 4 4 4 4 4 5 5 5 6 7 8 8 8 7 6 6 7 7 7 7 7 7 8 8 9 9 8 8
2 2 1 1 1 1 1 1 1 2 1 1 2 3 3 3 1 1 1 1 1 0 1 2 4 0 2 2 2 1 2 1 2 0 1 2 1 2 4 4 5 5 6 6 5 5 6 5 5 6 5 5 5 6 4 4 5 5 6 4 5 4 3 3 3 5 6 7 7 7 6 6 5 5 5 6 6 7 7 8 8 8 8 8 8
3 3 2 2 2 2 1 1 2 3 2 3 3 3 2 1 1 2 1 1 2 1 0 3 0 2 3 4 3 1 0 1 1 0 2 1 3 3 1 2 3 5 6 6 5 6 6 5 5 5 6 5 5 4 3 4 4 4 3 4 5 4 3 3 2 4 5 6 6 5 5 5 4 4 4 5 6 7 7 7 8 8 8 8 8
3 4 3 3 2 3 2 2 3 3 2 2 2 2 3 3 1 1 2 0 0 1 1 1 0 1 3 2 4 2 3 1 1 0 2 1 1 1 1 1 0 4 6 5 5 4 6 6 6 6 5 5 5 4 4 5 3 3 3 5 5 5 4 3 2 4 4 5 5 4 4 4 3 3 4 5 5 6 7 8 7 8 7 8 8
4 4 4 3 3 2 2 3 3 3 2 3 2 2 2 3 3 3 2 1 0 0 0 2 1 2 0 2 2 3 4 3 3 4 2 2 1 2 2 3 4 6 3 5 6 4 5 5 5 5 5 6 4 4 4 3 3 3 4 7 6 6 5 4 4 4 2 3 3 2 2 2 3 3 4 4 5 6 7 7 7 7 7 8 9
4 4 5 4 3 3 3 3 2 2 2 2 3 3 3 3 2 1 1 3 1 0 1 1 1 3 3 1 2 0 1 1 3 2 1 1 3 3 2 1 3 4 4 5 7 5 4 4 5 6 6 6 5 4 4 4 4 4 7 8 7 6 6 5 4 4 2 4 3 1 1 2 2 3 3 4 5 6 7 7 7 8 8 9 9
4 4 5 4 4 3 3 3 3 3 3 3 3 3 2 2 1 2 2 1 0 0 1 3 3 3 3 3 2 1 1 3 3 3 1 1 1 1 2 2 2 2 5 3 4 4 2 4 6 6 7 6 5 5 4 3 4 6 5 7 7 7 6 5 6 5 4 4 4 1 2 2 2 2 2 3 4 5 6 7 7 8 9 9 10
5 6 5 5 5 5 4 3 3 3 3 3 3 2 2 2 2 2 2 2 2 2 2 3 2 3 5 3 3 3 3 2 2 3 3 1 2 0 1 0 0 2 3 1 1 3 2 6 7 6 7 6 4 4 5 4 4 6 7 5 7 7 7 6 6 7 6 5 5 3 3 3 1 1 0 1 2 3 5 6 6 8 9 10 10
6 6 6 5 5 5 5 4 4 4 3 3 2 2 3 3 3 3 3 3 2 2 3 3 3 3 2 4 4 5 3 3 3 2 1 1 1 1 1 1 1 2 2 2 1 0 1 3 2 1 3 3 4 4 4 5 3 6 7 4 5 8 8 8 7 7 7 6 6 5 4 4 3 2 2 1 1 2 3 4 5 7 9 9 10
6 6 5 5 6 5 5 5 4 4 4 3 2 2 3 2 3 3 3 2 3 2 3 2 4 4 4 3 5 5 4 2 3 4 0 3 2 2 2 2 4 4 4 2 4 1 3 2 1 2 2 3 4 4 3 2 4 6 7 3 3 7 9 9 8 8 8 7 7 6 5 4 4 3 3 3 2 2 1 2 4 5 7 8 9
5 5 6 5 6 5 5 5 5 5 4 4 3 3 3 3 2 2 3 1 1 2 3 3 4 4 3 3 3 4 2 3 2 2 2 0 3 4 4 4 1 3 4 4 4 3 2 1 2 0 1 3 3 1 2 3 4 8 7 3 3 4 8 10 10 9 9 8 7 7 6 5 5 5 4 4 4 2 2 2 3 4 6 7 7
6 5 6 5 5 6 6 6 5 5 4 4 4 4 3 3 3 3 3 2 1 3 2 3 4 4 3 3 3 4 4 2 3 2 1 1 0 3 3 2 5 2 1 2 2 1 3 2 1 2 3 3 2 0 1 3 6 6 4 3 3 3 7 11 11 10 9 8 8 8 7 6 5 6 6 5 4 4 3 2 1 3 5 6 7
6 5 6 6 6 7 6 6 5 5 5 4 4 4 4 4 3 4 3 2 2 2 2 2 4 3 3 3 2 4 3 3 3 2 1 2 0 1 1 3 5 2 3 1 3 2 2 3 0 2 3 6 4 4 2 4 7 7 5 4 4 4 8 11 12 10 9 9 8 8 7 7 6 6 6 5 4 4 4 3 1 2 4 5 5
6 5 6 6 7 6 6 6 5 6 5 5 5 5 4 5 4 4 3 2 2 3 3 3 3 3 3 4 3 3 3 3 3 3 1 1 1 1 1 2 1 2 4 2 0 3 1 1 3 2 2 4 5 5 4 4 6 5 5 4 4 7 9 8 11 10 10 10 9 8 8 8 7 7 7 6 5 4 5 3 1 0 2 4 4
6 6 6 6 7 7 6 6 6 6 6 5 5 5 5 5 5 4 4 3 3 3 4 3 3 3 3 3 4 3 4 3 3 3 3 3 2 1 0 0 1 2 3 2 2 6 3 2 2 5 5 3 6 5 6 5 5 4 3 4 5 7 5 5 7 10 10 11 10 9 9 9 8 8 8 7 6 6 5 5 4 1 1 2 4
7 7 6 6 8 8 7 6 7 6 6 6 5 5 6 5 5 4 3 3 4 4 3 4 3 3 3 3 4 4 2 3 3 4 3 3 2 3 0 1 2 2 3 2 2 6 5 2 2 2 3 3 3 2 4 5 6 6 4 4 4 4 4 5 5 8 11 11 10 10 10 10 10 9 9 9 8 6 6 6 5 3 1 0 2
6 7 7 6 6 8 8 8 7 7 6 6 6 5 5 5 5 4 4 4 4 4 3 4 4 3 3 3 5 5 3 3 4 4 3 3 3 3 3 3 3 4 3 2 3 2 6 4 4 3 3 0 3 1 2 4 6 4 5 5 4 4 5 5 5 5 10 11 11 11 11 11 11 11 10 10 9 8 8 8 7 6 3 1 1
6 6 7 7 7 7 8 8 7 7 7 7 6 6 6 6 5 4 4 4 5 5 5 5 5 4 3 3 4 4 3 3 4 4 3 3 2 2 4 3 4 5 3 3 3 3 5 6 3 3 2 2 2 4 4 4 4 4 5 6 6 5 4 4 5 5 7 11 12 13 13 13 12 12 12 11 10 10 9 9 9 8 6 3 3
8 6 6 7 7 8 8 8 8 6 7 6 6 7 7 7 6 6 5 4 4 5 5 5 5 4 4 4 5 4 3 3 4 4 4 4 3 3 3 4 4 6 5 3 3 4 3 4 4 3 3 3 4 3 4 5 5 6 4 5 5 5 6 5 3 4 6 10 12 13 14 13 13 13 12 11 11 11 10 10 9 9 8 6 4
7 7 6 6 8 8 9 9 8 8 7 7 7 7 6 6 7 7 6 5 5 6 6 6 6 5 5 5 6 4 4 4 4 4 4 5 5 4 4 4 5 5 4 3 5 4 4 6 5 3 2 2 3 4 4 4 6 5 4 4 5 6 7 6 4 4 4 7 10 12 12 12 13 12 12 11 11 11 11 10 10 11 10 8 6
7 7 8 7 7 9 10 9 9 9 8 7 8 8 8 7 7 7 7 7 7 6 6 6 6 5 5 6 6 6 5 5 5 5 4 5 5 5 5 4 4 4 4 5 3 3 3 6 4 5 3 4 4 4 4 3 5 6 7 7 5 4 4 6 6 4 2 2 3 5 7 9 11 11 11 11 11 11 12 11 11 12 11 10 8
8 7 8 9 8 8 9 9 10 9 9 8 8 8 8 8 8 8 8 7 7 6 6 7 7 7 7 6 6 7 7 7 7 7 6 5 5 5 6 6 4 3 3 4 4 4 4 5 4 4 5 4 3 6 5 2 3 4 4 6 7 6 3 3 6 5 2 3 4 5 7 7 7 7 9 11 11 12 12 12 12 13 12 11 10
6 8 9 9 9 8 9 9 9 8 8 8 8 8 8 9 8 8 8 8 8 7 7 7 7 7 8 7 7 7 8 7 7 7 6 7 5 5 6 4 4 4 5 5 4 4 4 4 5 6 3 4 5 4 4 4 5 5 3 4 6 7 8 3 4 5 3 2 4 4 4 4 5 7 8 8 10 12 12 11 12 12 14 13 11
5 5 6 8 9 9 9 9 8 7 8 8 8 8 8 8 8 8 8 8 8 8 7 7 7 7 7 7 8 8 8 11 12 11 9 8 6 7 6 4 4 5 5 4 5 5 5 4 6 3 4 6 6 5 7 6 7 8 5 0 4 7 6 7 8 4 6 6 5 3 4 5 5 6 5 5 7 9 10 11 9 12 16 14 13
4 4 4 4 7 9 10 9 8 8 7 7 9 14 12 9 9 8 8 8 8 7 8 7 7 7 8 7 7 11 13 14 13 13 14 13 12 9 8 6 6 6 6 6 6 6 6 6 7 6 6 7 7 6 6 6 6 4 6 6 5 8 5 6 6 5 3 3 4 5 6 4 5 5 4 7 6 6 7 7 10 11 13 15 14
5 4 4 5 5 7 9 10 10 9 9 9 14 15 16 16 10 8 9 8 7 8 7 8 8 8 7 7 7 9 10 10 11 14 14 14 15 15 15 13 10 8 7 7 7 7 6 7 7 5 6 8 9 7 7 8 5 6 6 5 6 5 5 5 7 8 2 5 4 3 5 3 5 6 6 7 7 6 7 9 14 15 16 14 14
7 5 5 6 6 6 7 8 10 10 10 13 16 16 17 18 15 10 9 8 7 7 7 8 7 7 7 7 7 7 7 8 8 8 10 14 15 15 15 14 14 14 13 10 8 6 5 7 7 8 6 7 8 6 7 4 7 5 6 5 6 7 6 5 5 6 5 0 3 3 8 2 4 6 6 7 7 7 9 12 14 15 16 16 15
4 4 5 3 4 5 7 7 9 10 9 13 16 17 17 18 18 14 8 8 8 8 8 8 7 7 7 7 7 7 8 12 10 8 7 7 10 13 14 14 14 13 14 15 14 11 7 7 8 8 8 6 6 8 5 4 2 4 6 7 6 5 6 7 8 7 8 1 1 3 8 4 6 5 7 8 7 6 8 11 15 15 16 16 17
3 4 5 6 4 3 4 5 7 8 9 11 15 17 18 18 18 14 10 9 9 9 9 9 8 8 8 8 8 8 8 7 7 7 6 6 6 5 5 6 7 10 13 14 14 15 9 8 8 9 9 5 9 8 8 4 4 8 8 9 7 6 6 8 7 6 6 1 4 3 7 8 5 5 7 8 6 7 8 11 14 15 16 17 17
3 3 4 4 4 3 3 3 2 2 5 7 11 14 15 17 16 12 9 9 8 8 9 8 9 9 9 9 8 9 9 8 8 9 8 7 6 6 6 6 7 7 8 8 8 8 8 8 8 10 11 8 9 10 8 6 7 9 9 7 4 4 6 5 6 7 8 5 4 3 7 10 2 3 7 7 4 6 7 10 13 14 15 16 17
1 1 2 2 3 3 2 1 1 2 2 10 8 3 4 4 2 2 3 4 5 6 6 7 8 8 9 9 9 9 10 9 12 16 14 10 7 8 8 8 7 7 8 10 13 13 11 10 10 12 11 12 12 10 10 9 8 7 5 2 3 5 7 8 9 9 8 5 5 6 5 8 5 4 7 5 3 6 6 6 9 12 14 15 16
2 2 3 3 2 2 2 2 2 1 0 4 7 7 6 7 7 4 6 6 6 6 7 5 5 6 7 8 9 10 10 10 13 16 16 14 9 10 10 10 9 8 9 7 11 15 17 17 18 17 17 17 16 16 16 16 12 8 3 5 9 7 6 7 8 7 10 6 3 6 4 8 7 4 7 5 4 6 7 7 5 6 10 12 14
1 2 2 3 3 3 3 3 4 4 3 4 5 8 11 12 9 5 4 5 5 6 7 7 6 6 7 12 12 10 11 12 15 17 18 13 10 11 10 10 10 10 10 8 6 8 15 17 18 18 18 17 17 17 16 16 17 9 6 10 11 4 6 7 9 8 8 7 7 6 2 9 7 2 4 4 2 4 5 6 2 1 4 7 10
3 2 2 3 3 3 4 3 6 5 5 7 11 11 11 11 8 5 6 5 6 6 6 7 7 7 7 9 13 13 12 14 17 17 18 13 10 10 10 9 11 11 12 9 8 9 7 7 8 8 9 12 12 11 13 19 19 13 9 11 8 6 9 9 8 6 7 9 7 10 6 8 5 4 3 3 3 5 2 3 2 2 2 3 4
Wind_Direction
125 102 69 86 93 85 76 85 70 28 43 16 84 5 318 305 295 272 258 267 263 269 259 235 180 192 183 175 174 165 162 155 155 164 172 185 181 195 190 194 194 199 201 196 197 196 203 209 214 212 214 222 215 210 228 236 245 250 265 269 276 283 293 293 294 291 289 290 290 291 293 280 280 277 279 271 269 269 272 264 261 258 259 258 258
153 103 101 90 83 89 84 88 125 285 160 233 224 178 240 273 267 277 265 258 261 255 246 242 181 183 180 174 172 178 177 159 164 173 176 173 189 211 197 200 202 205 209 209 212 209 214 213 216 214 223 221 227 229 234 240 241 249 256 263 262 273 287 291 280 281 286 288 293 292 286 285 280 275 275 285 276 270 270 267 262 261 261 261 260
137 132 100 93 108 149 178 164 164 211 207 213 234 215 244 243 242 241 247 230 231 238 219 197 175 162 172 169 176 171 165 160 162 169 178 187 191 210 211 204 208 212 214 215 221 223 219 221 222 222 224 227 228 226 233 240 250 263 266 280 285 285 290 288 283 285 285 285 286 287 284 280 280 281 276 273 275 276 274 273 271 267 267 267 263
130 122 134 142 184 192 218 164 192 213 208 233 247 261 250 258 257 252 263 243 203 179 179 168 158 162 161 171 170 165 160 168 174 175 187 197 198 204 208 214 213 214 217 221 222 226 229 228 233 233 233 237 237 238 240 250 258 259 262 266 270 276 280 279 281 284 283 285 285 281 278 278 279 277 279 277 277 278 278 278 277 275 272 270 268
148 151 152 175 181 223 273 251 222 212 240 264 291 278 267 255 251 236 218 202 48 29 135 179 159 169 173 174 167 166 163 169 183 175 190 194 205 209 211 215 223 219 219 225 228 228 231 233 236 239 238 242 245 248 252 253 253 257 268 272 275 280 281 282 281 282 286 284 280 280 280 279 278 279 277 278 279 280 280 278 277 277 277 275 272
151 149 159 172 186 206 279 289 287 269 279 274 273 265 269 268 276 348 12 37 11 3 119 175 212 175 192 170 168 172 165 177 187 188 182 197 199 204 210 219 223 237 243 230 232 235 234 236 239 242 245 248 249 251 253 256 259 264 265 267 272 275 277 278 280 279 278 280 280 279 280 280 280 280 280 280 279 280 281 281 280 277 277 276 276
152 154 168 171 180 207 256 268 290 248 262 260 265 288 290 293 322 355 344 359 337 5 80 152 177 200 210 181 179 170 171 182 189 188 190 198 192 205 207 214 215 224 231 242 244 241 241 241 242 243 246 248 250 252 254 256 259 263 266 268 268 271 273 275 276 277 276 275 277 278 278 280 281 281 282 282 281 282 282 281 280 279 279 278 277
147 154 158 177 180 205 233 257 252 227 249 273 269 283 292 301 292 202 297 308 357 335 11 334 142 215 214 205 178 163 177 182 192 193 196 190 201 205 206 209 217 218 221 222 234 247 244 243 244 247 247 249 251 254 256 258 259 260 262 264 266 267 270 271 273 273 273 274 275 277 277 278 279 281 282 282 283 282 281 281 280 278 277 276 276
149 154 153 182 199 226 243 243 247 221 240 249 249 254 261 284 302 260 172 265 327 312 326 337 289 230 202 218 164 175 175 189 191 194 179 199 204 208 204 212 217 223 224 221 226 235 247 246 246 247 248 249 251 253 256 259 260 261 262 263 265 267 268 268 269 269 271 273 275 276 278 279 280 280 280 284 285 283 279 277 275 275 280 281 279
155 160 172 190 204 212 232 237 236 226 235 226 229 246 324 236 255 310 183 168 271 279 272 289 249 188 222 235 199 153 177 185 189 183 187 202 204 210 208 202 208 221 220 221 220 227 237 246 247 247 248 249 250 251 254 257 260 262 264 265 266 267 268 268 267 268 269 271 272 275 277 279 281 282 283 284 285 287 285 283 281 283 286 287 285
173 185 183 203 209 227 241 229 200 201 192 73 357 320 272 310 338 317 312 230 228 220 227 227 260 162 194 252 201 226 186 171 186 187 198 201 202 211 190 206 206 216 225 224 222 221 230 236 241 244 248 249 249 250 251 254 257 260 263 265 266 266 266 265 264 265 267 271 274 276 279 282 285 286 287 289 292 290 289 288 291 292 293 293 289
189 196 200 209 208 227 230 196 153 140 132 145 266 270 247 275 295 249 306 314 263 270 255 164 39 42 273 269 265 297 290 175 158 197 200 213 215 204 205 194 208 215 217 221 219 222 226 230 233 238 243 252 251 251 253 255 257 259 260 262 263 264 264 264 264 265 268 273 276 279 281 284 287 290 294 295 293 293 293 293 294 297 296 295 294
185 187 204 220 208 220 198 172 135 116 139 213 237 252 239 211 245 290 195 7 331 5 323 132 120 85 340 338 326 321 314 307 243 194 193 215 221 223 220 193 213 214 218 214 219 225 226 225 230 237 243 248 257 256 255 256 257 259 260 260 261 262 263 265 267 269 272 276 280 283 285 287 293 297 297 298 299 300 299 298 296 300 305 309 307
182 184 208 208 186 185 183 180 161 175 211 291 295 284 299 305 5 5 352 195 255 248 177 95 65 151 153 317 333 319 290 286 276 262 235 195 194 211 215 213 214 218 211 207 221 225 229 223 226 232 239 240 248 252 257 257 257 255 255 257 259 261 262 264 267 273 277 282 286 290 294 299 301 308 308 308 306 306 306 308 308 316 326 328 325
184 193 194 181 168 166 181 182 171 170 149 275 316 300 305 305 355 314 319 334 303 294 263 118 186 86 86 80 309 349 322 339 303 259 236 225 196 202 206 214 217 213 205 205 219 226 229 220 220 228 233 235 240 243 246 249 248 248 250 253 256 260 264 268 272 277 282 290 297 303 308 314 317 317 318 317 320 324 324 328 337 345 342 334 340
181 192 180 147 154 169 173 171 185 162 156 195 256 275 311 310 333 307 108 336 357 319 276 220 130 117 225 197 229 113 334 296 267 283 254 224 186 206 200 214 209 205 186 209 218 220 227 218 219 221 228 232 235 239 242 245 250 253 253 252 252 257 264 274 280 285 292 301 309 315 320 321 323 325 332 335 337 343 347 350 351 351 350 360 14
174 173 161 151 144 148 149 159 155 160 143 170 227 242 252 266 249 273 306 202 321 327 320 24 314 171 142 74 356 16 239 251 355 290 302 224 212 191 203 207 201 194 196 220 216 217 218 219 225 224 228 232 238 236 240 248 254 254 258 260 263 268 269 269 275 286 300 307 315 322 324 327 333 338 346 347 355 354 351 355 359 6 18 21 17
173 185 148 133 151 160 131 139 182 219 162 193 253 306 296 291 247 190 232 15 148 40 339 325 307 303 158 166 160 181 221 269 91 261 325 284 256 211 199 200 195 195 216 220 212 224 216 224 215 229 226 228 231 235 236 244 251 258 260 272 293 277 258 249 259 291 304 311 320 326 335 343 348 356 2 0 357 355 358 7 12 22 28 28 26
192 193 182 160 163 208 181 171 220 229 233 234 271 259 259 242 257 145 211 69 91 51 18 294 335 312 19 306 244 241 169 55 281 351 359 317 337 235 218 201 195 205 214 220 219 218 222 218 216 227 234 228 230 236 241 253 255 250 247 245 244 233 196 227 253 290 303 313 322 334 345 1 10 14 6 1 357 359 12 21 27 29 27 27 27
185 192 192 187 176 211 224 210 218 238 234 228 236 253 224 192 232 165 112 122 134 130 348 5 96 280 333 338 345 359 61 299 137 183 165 26 329 333 20 201 236 228 225 224 213 211 216 215 219 231 238 242 243 253 264 260 256 250 234 198 173 155 177 196 251 278 298 311 332 342 356 13 26 20 8 8 3 9 27 30 30 26 21 22 26
189 184 194 192 194 202 209 218 220 240 245 232 236 227 193 170 181 117 144 224 116 149 100 323 13 308 345 334 350 3 344 16 58 140 88 81 307 340 285 333 248 284 263 251 239 204 209 209 213 219 225 240 251 261 259 260 245 201 193 180 168 176 185 190 219 264 285 314 332 347 0 20 33 25 16 13 16 25 32 29 24 22 19 21 26
189 185 184 193 194 188 188 204 218 227 244 213 216 205 206 178 189 178 152 214 328 122 227 277 272 282 271 205 18 340 7 357 9 14 50 82 131 311 268 216 213 261 248 250 247 222 210 210 220 231 234 241 246 242 239 230 199 184 192 184 187 181 186 185 213 242 275 300 316 347 20 26 35 33 23 21 26 31 30 23 19 18 18 21 27
182 190 186 186 191 180 190 205 207 229 224 205 204 200 203 197 200 164 163 188 230 346 324 323 313 321 312 277 270 235 282 303 294 316 95 32 21 329 329 247 198 263 273 233 237 216 196 198 212 227 233 239 237 226 217 211 200 207 188 191 192 186 193 193 199 222 237 269 285 306 69 65 44 37 27 28 29 29 25 22 16 15 16 21 30
187 183 195 185 183 190 201 191 201 216 225 224 209 207 215 186 168 170 198 196 186 192 293 314 337 332 317 309 293 236 258 265 271 225 163 206 135 285 283 318 339 260 284 320 272 271 167 209 215 219 225 230 224 215 212 195 216 221 192 199 195 193 201 201 200 208 211 246 252 230 126 106 66 44 22 26 28 27 22 19 15 11 16 21 29
189 186 199 188 178 188 203 198 210 205 222 240 226 211 201 180 186 198 190 203 205 212 275 265 266 286 291 313 302 289 288 251 214 219 223 149 132 68 283 111 184 302 303 2 298 327 245 196 211 212 212 220 222 203 203 203 208 217 201 204 198 199 203 210 210 206 202 228 232 203 167 149 156 181 288 354 24 23 18 19 14 10 14 22 26
183 193 196 187 184 194 190 198 204 195 197 211 210 207 188 190 189 201 217 229 229 238 245 268 281 274 270 308 307 290 299 349 299 201 166 141 14 164 269 330 69 328 290 342 304 279 291 231 251 255 244 199 219 212 204 206 214 233 219 206 203 204 205 213 216 211 206 216 227 219 194 175 183 191 206 241 302 6 19 21 18 11 15 20 24
187 194 194 188 192 193 193 191 197 184 184 191 190 177 170 184 192 197 230 239 224 234 263 266 286 292 303 291 286 293 288 308 323 346 235 188 163 175 138 354 342 6 352 325 327 42 268 308 357 326 307 274 226 210 203 196 230 234 228 222 202 214 211 214 220 215 207 215 217 220 212 187 184 196 215 228 265 306 9 31 21 16 16 21 25
201 191 201 191 192 196 194 194 189 183 182 186 186 174 160 165 180 183 220 218 224 260 266 289 285 288 301 302 306 280 302 287 298 289 29 314 136 124 115 110 107 320 343 345 348 322 305 329 318 257 294 273 277 315 286 240 251 247 242 222 218 222 222 220 222 219 211 217 221 215 215 195 192 201 208 226 246 277 310 3 23 19 18 20 25
194 201 201 198 196 194 195 192 185 185 181 183 185 180 171 180 188 193 226 268 248 247 274 278 270 281 299 306 297 291 289 308 320 312 324 4 286 139 152 148 152 126 278 329 287 279 310 347 314 306 324 302 309 244 267 259 252 250 244 226 219 223 225 222 224 221 212 213 217 217 210 201 196 209 211 217 236 259 285 314 13 28 21 21 23
189 196 197 196 200 200 191 193 186 181 188 184 184 185 177 187 197 204 214 219 268 288 285 272 276 288 294 296 315 310 309 336 294 289 218 235 125 94 115 129 139 142 173 198 276 224 259 311 26 350 330 329 314 302 250 255 257 252 248 228 218 227 228 223 225 223 217 217 218 215 209 204 203 210 215 211 225 253 268 277 331 27 21 25 27
198 195 185 193 193 197 189 191 188 188 189 191 186 188 185 193 197 214 223 192 209 252 270 261 267 283 293 300 320 312 309 326 327 322 326 321 358 92 108 132 130 131 156 136 301 288 207 309 303 294 310 300 313 312 301 282 273 259 253 239 231 235 230 231 230 224 220 221 220 213 215 210 206 210 210 205 209 233 248 260 278 10 36 26 37
209 201 187 186 186 187 190 191 193 191 191 199 191 190 189 199 199 208 223 199 215 238 261 258 263 280 287 292 291 288 301 323 310 294 313 323 329 342 53 128 136 138 133 132 186 264 259 217 257 290 293 302 310 316 314 326 312 305 272 273 251 251 235 244 235 227 223 223 220 213 214 214 209 210 212 208 207 222 244 255 256 263 54 26 55
209 205 199 188 183 184 187 194 196 193 195 202 199 190 191 196 204 208 214 207 222 240 237 263 266 274 278 275 280 280 286 305 291 291 300 288 314 313 235 160 204 171 153 160 229 285 296 241 232 252 289 327 319 341 338 333 333 329 310 270 276 263 249 244 242 227 224 224 221 214 214 215 212 212 216 213 210 217 235 250 261 255 206 302 71
200 205 205 198 188 186 187 192 198 196 195 201 202 194 200 203 208 206 214 213 220 235 225 239 249 247 245 264 278 282 285 281 286 285 265 287 295 295 287 235 231 229 202 176 214 212 276 318 316 311 297 287 306 287 305 308 308 312 310 300 280 239 247 254 252 250 222 222 219 215 215 214 214 216 217 217 213 216 229 244 253 257 248 221 125
210 204 202 202 193 189 190 190 192 198 198 200 201 196 204 206 211 218 215 210 216 227 226 234 238 236 244 245 260 273 289 297 289 280 285 276 282 270 270 258 258 259 231 205 182 244 266 276 251 284 272 296 247 286 294 272 274 275 289 293 284 288 265 239 241 252 224 217 215 214 214 213 213 217 217 216 216 218 225 236 248 257 252 225 218
214 216 202 199 192 193 195 194 191 191 197 202 202 202 203 203 209 217 223 219 221 227 229 231 233 227 230 240 252 254 264 272 278 284 285 289 282 265 274 271 252 258 251 211 212 219 231 254 289 245 271 296 297 282 278 293 297 303 287 287 293 285 287 281 240 243 238 217 213 213 214 214 214 217 218 216 218 220 222 229 239 248 252 239 218
214 212 212 202 193 194 200 200 201 199 194 196 203 207 209 205 206 211 216 217 220 226 231 233 231 220 225 224 240 241 244 253 270 265 268 280 278 274 262 273 259 253 267 243 240 224 240 254 272 273 264 279 255 277 278 291 306 307 303 289 285 288 290 281 278 243 242 219 216 217 219 219 219 220 219 218 219 222 222 226 234 242 247 247 235
213 213 210 208 201 199 201 201 202 203 199 194 199 205 207 207 208 212 213 214 217 218 223 227 230 224 222 229 232 229 233 232 245 253 258 260 269 271 269 256 248 260 258 265 256 257 250 258 261 298 317 281 312 287 280 283 294 302 309 304 306 287 272 297 280 259 205 179 198 220 231 235 235 230 226 223 223 224 225 225 231 239 243 245 242
207 209 212 211 212 205 205 203 203 202 201 199 198 201 204 204 206 210 215 215 217 219 223 224 224 220 221 224 228 225 225 225 232 236 237 240 240 252 252 260 263 228 246 251 249 237 232 254 274 247 275 278 238 285 291 298 266 239 262 306 311 299 284 239 285 285 229 235 238 224 220 217 225 226 231 231 229 228 229 228 231 239 243 242 241
219 214 208 210 215 212 211 209 209 203 202 202 202 201 202 202 201 208 211 213 216 221 225 227 226 225 220 220 222 224 222 223 223 231 220 231 223 236 241 238 255 257 255 255 267 257 260 261 253 273 270 280 305 269 293 334 317 306 235 220 268 286 298 288 234 275 290 251 249 228 220 229 244 237 238 237 238 236 234 236 236 238 241 241 237
197 217 224 215 211 218 220 214 212 207 203 207 203 200 201 207 204 205 206 209 212 219 223 225 226 230 230 226 226 226 222 224 221 222 222 216 219 233 243 216 232 236 248 249 240 245 253 249 272 265 278 287 276 286 298 290 266 257 279 109 272 274 279 301 295 260 240 252 264 212 220 208 226 233 229 246 238 227 237 230 241 239 240 238 234
203 206 211 223 222 218 220 219 213 208 209 208 206 200 199 201 206 211 209 209 209 213 218 225 230 226 228 228 230 224 224 226 223 223 227 230 226 220 228 220 222 225 234 240 242 234 232 242 247 249 261 263 265 257 255 260 261 282 298 289 281 286 312 292 284 273 244 207 253 264 248 198 208 239 211 242 246 211 228 216 231 228 232 231 231
217 215 205 208 220 225 224 220 216 213 212 212 207 202 205 205 202 207 209 214 210 211 214 220 230 234 236 236 239 245 247 245 247 245 237 234 237 236 236 230 219 210 224 231 240 232 227 231 239 236 237 253 260 254 249 262 269 255 260 272 269 286 286 297 295 306 277 191 239 252 272 207 185 229 235 238 241 216 222 226 228 230 232 227 225
227 217 213 212 208 212 219 226 224 219 218 214 206 205 207 210 210 210 213 216 214 212 216 220 226 230 236 239 239 238 237 237 241 248 247 245 245 247 247 245 240 230 220 214 228 235 223 232 238 234 229 240 256 261 264 257 264 275 260 259 264 262 275 279 264 263 259 186 215 272 275 221 196 226 252 244 236 225 226 229 225 225 227 225 221
225 225 228 223 225 213 209 214 225 226 227 219 211 209 210 213 216 217 220 220 221 222 217 219 221 225 228 232 241 238 240 238 236 234 236 249 250 249 254 260 259 248 242 237 229 226 215 221 230 242 228 235 249 257 240 237 245 273 283 276 262 255 250 264 262 265 281 230 244 277 276 249 176 214 237 249 240 239 244 235 227 221 222 220 218
197 211 209 222 231 238 229 218 220 226 226 228 215 214 213 214 216 213 225 222 222 226 225 223 224 225 223 224 230 239 238 238 236 233 228 229 239 247 244 235 239 252 250 244 246 249 243 227 221 232 242 203 235 248 255 242 255 264 270 270 273 283 276 254 256 260 272 157 222 245 285 274 197 214 238 252 227 242 244 245 229 220 218 216 215
246 220 215 211 224 228 248 258 249 241 245 240 223 220 221 220 223 214 230 229 227 228 229 228 230 231 229 227 228 233 236 233 232 228 228 229 228 237 245 247 236 234 235 234 228 225 225 226 228 233 244 234 231 243 254 250 239 249 250 263 273 261 271 280 296 264 275 236 203 178 257 276 201 209 248 252 225 234 244 255 244 228 218 214 213
260 241 247 209 203 208 198 209 287 313 40 68 71 89 204 210 171 203 256 278 282 273 256 244 238 234 234 230 230 235 238 235 236 234 234 234 231 236 239 245 252 247 240 230 227 225 223 221 223 231 238 241 237 235 238 242 250 254 263 298 294 269 278 287 279 287 281 265 172 198 248 269 249 212 269 263 233 259 256 243 251 230 221 214 212
217 214 214 225 212 198 185 167 166 157 358 76 97 104 112 155 158 172 187 210 230 242 249 248 242 244 245 238 234 237 238 238 237 232 234 232 238 241 244 248 248 249 250 246 234 234 234 232 232 233 237 241 245 246 248 251 250 254 298 309 275 259 264 273 276 278 272 278 226 197 230 271 257 207 267 272 234 252 268 263 240 234 230 219 212
242 220 216 224 224 210 201 201 180 170 168 184 158 152 156 162 160 160 174 185 208 223 247 248 241 236 236 244 246 242 243 243 237 231 232 225 229 236 240 246 253 255 258 250 248 238 231 236 240 241 242 245 247 251 255 257 256 236 187 240 249 238 247 237 260 263 282 291 253 159 196 249 269 189 234 282 303 236 242 262 259 200 203 224 219
229 251 252 241 235 222 218 211 197 191 192 179 177 180 183 180 171 168 166 177 191 217 218 237 241 244 243 236 237 237 241 247 245 236 232 220 226 228 230 234 244 251 251 248 242 252 257 254 251 243 254 247 245 243 245 247 250 243 210 230 249 222 242 249 248 271 292 275 254 161 204 261 263 250 193 312 293 275 245 277 277 201 184 193 202